Simultaneous Nadir Overpasses (SNOs) Predictions

Prediction of SNOs between AQUA and NOAA-19 Satellite Orbit:

Table of predicted SNOs for the next 14.0 days since TLE Epoch: 8/7/2020
Index Date (AQUA) Time (AQUA) Lat,Lon (AQUA) SZA (AQUA ) Date (NOAA-19) Time (NOAA-19) Lat,Lon (NOAA-19) SZA (NOAA-19 ) Distance(km) Time Diff (sec)
1 08/08/2020 09:28:23 79.59, 10.43 64.97 08/08/2020 09:27:40 79.62, 10.37 65.02 3.19 43
2 08/08/2020 10:17:50 -79.64, 177.72 114.95 08/08/2020 10:18:42 -79.62, 177.65 114.98 2.55 52
3 08/10/2020 15:02:07 -79.60, 106.96 114.39 08/10/2020 15:00:58 -79.61, 107.04 114.36 2.05 69
4 08/10/2020 15:51:35 79.62, -85.57 65.66 08/10/2020 15:51:57 79.61, -85.72 65.66 3.23 22
5 08/12/2020 21:25:19 -79.63, 10.96 113.68 08/12/2020 21:25:14 -79.61, 11.06 113.70 2.71 5
6 08/15/2020 02:59:04 79.62, 107.61 66.99 08/15/2020 02:58:30 79.60, 107.69 66.98 2.56 34
7 08/15/2020 03:48:30 -79.62, -84.79 113.00 08/15/2020 03:49:30 -79.61, -84.93 113.02 3.04 60
8 08/17/2020 08:32:47 -79.58,-155.59 112.37 08/17/2020 08:31:46 -79.59,-155.59 112.34 1.05 61
9 08/17/2020 09:22:15 79.61, 11.83 67.69 08/17/2020 09:22:46 79.61, 11.84 67.67 0.52 31
10 08/19/2020 14:55:59 -79.62, 108.36 111.60 08/19/2020 14:56:02 -79.59, 108.39 111.63 3.41 3
11 08/21/2020 20:29:43 79.58,-154.82 69.08 08/21/2020 20:29:19 79.59,-154.86 69.10 0.77 24
